Regional Weather Roundup
Issued by NWS

Home | Current Version | Previous Version | Text Only | Print | Product List | Glossary Off
Versions: 1 2 3 4 5 6 7 8 9 10 11 12 13 14 15 16 17 18 19 20 21 22 23 24 25 26 27 28 29 30 31 32 33 34 35 36 37 38 39 40 41

000
ASUS45 KBOI 272010
RWRID
WEATHER ROUNDUP FOR IDAHO
NATIONAL WEATHER SERVICE BOISE ID
100 PM MST SAT DEC 27 2014

NOTE: "FAIR" INDICATES FEW OR NO CLOUDS BELOW 12000 FEET
WITH NO SIGNIFICANT WEATHER AND/OR OBSTRUCTIONS TO VISIBILITY

IDZ012-014-272100-
SOUTHWEST IDAHO


CITY           SKY/WX    TMP DP  RH WIND       PRES   REMARKS
BOISE          CLOUDY    32  18  56 E12       30.29F WCI  23
CALDWELL       PTSUNNY   34  18  51 NE10      30.32F WCI  26
MOUNTAIN HOME  MOSUNNY   31  22  67 E9        30.28F WCI  23
$$

IDZ016-017-272100-
SOUTHCENTRAL IDAHO


CITY           SKY/WX    TMP DP  RH WIND       PRES   REMARKS
BURLEY         CLOUDY    28  17  63 SW14      30.25F WCI  17
JEROME         PTSUNNY   26  19  74 CALM      30.27F
TWIN FALLS     PTSUNNY   32  15  49 S17       30.25F WCI  21
$$

IDZ019>023-272100-
SOUTHEAST IDAHO


CITY           SKY/WX    TMP DP  RH WIND       PRES   REMARKS
IDAHO FALLS    FLURRIES  15  12  88 N5        30.25F WCI   8
POCATELLO      CLOUDY    28  18  66 SW10      30.25F WCI  19
REXBURG        FLURRIES  15  13  91 CALM      30.24F
$$

IDZ006-010-011-018-031-032-272100-
CENTRAL IDAHO MOUNTAINS


CITY           SKY/WX    TMP DP  RH WIND       PRES   REMARKS
MCCALL         LGT SNOW  17  15  92 CALM      30.16F VSB 1
HAILEY         CLOUDY    19   7  58 NW6       30.21F WCI  11
STANLEY          N/A      3  -3  76 N3        30.16F
SALMON         PTSUNNY   21   9  58 NE6       30.19F WCI  14
CHALLIS        CLOUDY    14   4  64 N3        30.18F
$$

IDZ002-004-006-007-026-272100-
NORTHERN IDAHO


CITY           SKY/WX    TMP DP  RH WIND       PRES   REMARKS
LEWISTON       CLOUDY    35  30  82 N3        30.14F
LOWELL           N/A     34  30  85 VRB5      30.23F WCI  30
COEUR D`ALENE  CLOUDY    32  28  86 S9        30.06F WCI  24
MULLAN PASS    LGT SNOW  22  17  81 VRB7      29.94F WCI  13
$$



USA.gov is the U.S. government's official web portal to all federal, state and local government web resources and services.